If you wish to contribute or participate in the discussions about articles you are invited to join SKYbrary as a registered user

 Actions

Ain el Beida Airport

From SKYbrary Wiki

DAUU
Airport
ICAO: DAUU – IATA: OGX
Summary
Name Ain el Beida Airport
Region Africa
Territory Algeria DZ.gif
Location , Ouargla
Serving Ouargla
Elevation 149.962 m <br />492 ft <br />492 ft149.962 m <br />
Type medium airport
Coordinates 31° 55' 2.00" N, 5° 24' 46.00" E
Runways
Designator Length Width Surface ROPS
2/20 3000 m9,842.52 ft <br /> 45 m147.638 ft <br /> ASP /
18/36 3100 m10,170.604 ft <br /> 45 m147.638 ft <br /> ASP /


METAR
Observation DAUU 172200Z 00000KT 7000 SCT046 SCT100 36/02 Q1010
Station Ouargla
Date/Time 17 June 2021 22:00:00
Wind direction
Wind speed 00 kts
Lowest cloud amount scattered clouds
Temperature 36°C
Dew point 2°C
Humidity 11%
QNH 1010 hPa
Weather condition n/a